Location: Oshawa
(43.9000°N, 78.8670°W)
Time: 14:36:17
(UTC-04:00)

Cosmos 839 Rocket - Visible Passes

Search period start: 31 October 2014 00:00
Search period end: 09 November 2014 23:00
Orbit: 968 x 2084 km, 65.9° (Epoch: 29 October)

Date Brightness Start Highest point End Pass type
(mag) Time Alt. Az. Time Alt. Az. Time Alt. Az.
31 Oct 6.4 03:18:40 17° E 03:18:40 17° E 03:20:55 10° ENE visible
31 Oct 4.0 05:15:20 71° W 05:15:44 73° NW 05:22:02 10° NNE visible
31 Oct 5.5 07:12:30 10° WNW 07:16:52 18° NNW 07:21:01 10° N visible
01 Nov 4.6 04:35:14 57° NE 04:35:14 57° NE 04:40:09 10° NE visible
01 Nov 5.2 06:31:53 20° WNW 06:34:26 24° NW 06:39:27 10° NNE visible
02 Nov 5.7 02:55:02 30° ENE 02:55:02 30° ENE 02:58:08 10° NE visible
02 Nov 4.8 04:51:41 34° NW 04:52:10 34° NW 04:57:49 10° NNE visible
03 Nov 6.5 02:14:45 15° ENE 02:14:45 15° ENE 02:15:52 10° NE visible
03 Nov 4.7 04:11:24 43° NNW 04:11:24 43° NNW 04:16:08 10° NNE visible
03 Nov 5.8 06:08:39 10° NW 06:11:46 14° NNW 06:14:49 10° N visible
04 Nov 5.3 03:31:03 34° NNE 03:31:03 34° NNE 03:34:21 10° NNE visible
04 Nov 5.5 05:27:41 17° NW 05:29:11 18° NNW 05:33:21 10° N visible
05 Nov 6.1 02:50:38 21° NE 02:50:38 21° NE 02:52:28 10° NE visible
05 Nov 5.3 04:47:16 24° NNW 04:47:16 24° NNW 04:51:47 10° NNE visible
06 Nov 6.7 02:10:11 11° NE 02:10:11 11° NE 02:10:26 10° NE visible
06 Nov 5.4 04:06:49 27° N 04:06:49 27° N 04:10:09 10° NNE visible
06 Nov 6.0 06:05:12 10° NNW 06:06:49 11° NNW 06:08:26 10° N visible
07 Nov 5.8 03:26:19 22° NNE 03:26:19 22° NNE 03:28:27 10° NNE visible
07 Nov 5.8 05:22:57 13° NW 05:24:05 14° NNW 05:27:10 10° N visible
08 Nov 6.4 02:45:48 15° NNE 02:45:48 15° NNE 02:46:40 10° NNE visible
08 Nov 5.7 04:42:25 18° NNW 04:42:25 18° NNW 04:45:41 10° N visible
09 Nov 5.8 04:01:52 19° N 04:01:52 19° N 04:04:07 10° NNE visible
